contact:dominique.lefevre@mio.osupytheas.fr, maurice.libes@osupytheas.fr, didier.mallarino@osupytheas.fr
Project:EMSO http://www.emso-fr.org/EMSO-France
Depth: 2436.0 m
Title:EMSO Ligure Ouest : Data MII capteur MICROCAT
DateTime_Computer,Latitude,Longitude,Temperature,Conductivity,Pressure,DateTime_Instrument
DateTime_Computer,Latitude,Longitude,degC,S m-1,dbar,DateTime_Instrument
2019-11-03T00:02:41Z,42.805,6.029,13.3018,4.59991,2469.923,2019-11-03T02:03:08Z
2019-11-03T00:05:45Z,42.805,6.029,13.3012,4.59994,2469.923,2019-11-03T02:06:11Z
2019-11-03T00:08:48Z,42.805,6.029,13.2996,4.59984,2469.96,2019-11-03T02:09:15Z
2019-11-03T00:11:51Z,42.805,6.029,13.2988,4.59992,2469.947,2019-11-03T02:12:18Z
2019-11-03T00:14:54Z,42.805,6.029,13.2996,4.59991,2469.923,2019-11-03T02:15:21Z
2019-11-03T00:17:58Z,42.805,6.029,13.2994,4.59990,2469.937,2019-11-03T02:18:25Z
2019-11-03T00:21:01Z,42.805,6.029,13.3015,4.59984,2469.914,2019-11-03T02:21:28Z
2019-11-03T00:24:04Z,42.805,6.029,13.3031,4.59987,2469.937,2019-11-03T02:24:31Z
2019-11-03T00:27:07Z,42.805,6.029,13.2994,4.60003,2469.876,2019-11-03T02:27:34Z
2019-11-03T00:30:11Z,42.805,6.029,13.3000,4.59999,2469.923,2019-11-03T02:30:37Z
2019-11-03T00:33:14Z,42.805,6.029,13.2996,4.59999,2469.914,2019-11-03T02:33:41Z
2019-11-03T00:36:17Z,42.805,6.029,13.3003,4.59991,2469.9,2019-11-03T02:36:44Z
2019-11-03T00:39:20Z,42.805,6.029,13.3004,4.59994,2469.923,2019-11-03T02:39:47Z
2019-11-03T00:42:24Z,42.805,6.029,13.2996,4.59993,2469.9,2019-11-03T02:42:50Z
2019-11-03T00:45:27Z,42.805,6.029,13.3013,4.60002,2469.914,2019-11-03T02:45:54Z
2019-11-03T00:48:30Z,42.805,6.029,13.3015,4.60006,2469.947,2019-11-03T02:48:57Z
2019-11-03T00:51:33Z,42.805,6.029,13.2979,4.59983,2469.9,2019-11-03T02:52:00Z
2019-11-03T00:54:36Z,42.805,6.029,13.3026,4.60007,2469.937,2019-11-03T02:55:03Z
2019-11-03T00:57:39Z,42.805,6.029,13.3007,4.60039,2469.89,2019-11-03T02:58:06Z
2019-11-03T01:00:43Z,42.805,6.029,13.3003,4.60009,2469.876,2019-11-03T03:01:10Z
2019-11-03T01:03:46Z,42.805,6.029,13.3057,4.60017,2469.9,2019-11-03T03:04:13Z
2019-11-03T01:06:49Z,42.805,6.029,13.3027,4.60004,2469.937,2019-11-03T03:07:16Z
2019-11-03T01:09:52Z,42.805,6.029,13.3002,4.59996,2469.937,2019-11-03T03:10:19Z
2019-11-03T01:12:56Z,42.805,6.029,13.3026,4.59992,2469.914,2019-11-03T03:13:22Z
2019-11-03T01:15:59Z,42.805,6.029,13.3001,4.59991,2469.937,2019-11-03T03:16:26Z
2019-11-03T01:19:02Z,42.805,6.029,13.2990,4.59994,2469.914,2019-11-03T03:19:29Z
2019-11-03T01:22:05Z,42.805,6.029,13.2994,4.59999,2469.914,2019-11-03T03:22:32Z
2019-11-03T01:25:09Z,42.805,6.029,13.3006,4.59995,2469.876,2019-11-03T03:25:35Z
2019-11-03T01:28:12Z,42.805,6.029,13.3008,4.60003,2469.89,2019-11-03T03:28:39Z
2019-11-03T01:31:15Z,42.805,6.029,13.3004,4.60006,2469.853,2019-11-03T03:31:42Z
2019-11-03T01:34:18Z,42.805,6.029,13.3009,4.60000,2469.9,2019-11-03T03:34:45Z
2019-11-03T01:37:22Z,42.805,6.029,13.3011,4.60012,2469.914,2019-11-03T03:37:48Z
2019-11-03T01:40:25Z,42.805,6.029,13.2961,4.60036,2469.876,2019-11-03T03:40:52Z
2019-11-03T01:43:28Z,42.805,6.029,13.2962,4.60022,2469.876,2019-11-03T03:43:55Z
2019-11-03T01:46:31Z,42.805,6.029,13.2968,4.60004,2469.89,2019-11-03T03:46:58Z
2019-11-03T01:49:34Z,42.805,6.029,13.2958,4.59996,2469.89,2019-11-03T03:50:01Z
2019-11-03T01:52:38Z,42.805,6.029,13.2959,4.59982,2469.9,2019-11-03T03:53:05Z
2019-11-03T01:55:41Z,42.805,6.029,13.2961,4.59974,2469.9,2019-11-03T03:56:08Z
2019-11-03T01:58:44Z,42.805,6.029,13.2957,4.59966,2469.867,2019-11-03T03:59:11Z
2019-11-03T02:01:47Z,42.805,6.029,13.2957,4.59963,2469.914,2019-11-03T04:02:14Z
2019-11-03T02:04:50Z,42.805,6.029,13.2958,4.59964,2469.914,2019-11-03T04:05:17Z
2019-11-03T02:07:54Z,42.805,6.029,13.2952,4.59966,2469.914,2019-11-03T04:08:20Z
2019-11-03T02:10:57Z,42.805,6.029,13.2960,4.59965,2469.876,2019-11-03T04:11:24Z
2019-11-03T02:14:00Z,42.805,6.029,13.2959,4.59972,2469.89,2019-11-03T04:14:27Z
2019-11-03T02:17:03Z,42.805,6.029,13.2957,4.59981,2469.9,2019-11-03T04:17:30Z
2019-11-03T02:20:07Z,42.805,6.029,13.2957,4.59977,2469.876,2019-11-03T04:20:33Z
2019-11-03T02:23:10Z,42.805,6.029,13.2957,4.59967,2469.876,2019-11-03T04:23:37Z
2019-11-03T02:26:13Z,42.805,6.029,13.2958,4.59973,2469.853,2019-11-03T04:26:40Z
2019-11-03T02:29:16Z,42.805,6.029,13.2957,4.59975,2469.867,2019-11-03T04:29:43Z
2019-11-03T02:32:19Z,42.805,6.029,13.2955,4.59966,2469.937,2019-11-03T04:32:46Z
2019-11-03T02:35:22Z,42.805,6.029,13.2958,4.59968,2469.867,2019-11-03T04:35:49Z
2019-11-03T02:38:26Z,42.805,6.029,13.2957,4.59974,2469.876,2019-11-03T04:38:53Z
2019-11-03T02:41:29Z,42.805,6.029,13.2955,4.59968,2469.867,2019-11-03T04:41:56Z
2019-11-03T02:44:32Z,42.805,6.029,13.2957,4.59961,2469.867,2019-11-03T04:44:59Z
2019-11-03T02:47:35Z,42.805,6.029,13.2960,4.59969,2469.867,2019-11-03T04:48:02Z
2019-11-03T02:50:39Z,42.805,6.029,13.2958,4.59968,2469.89,2019-11-03T04:51:05Z
2019-11-03T02:53:42Z,42.805,6.029,13.2958,4.59963,2469.853,2019-11-03T04:54:09Z
2019-11-03T02:56:45Z,42.805,6.029,13.2957,4.59966,2469.914,2019-11-03T04:57:12Z
2019-11-03T02:59:48Z,42.805,6.029,13.2961,4.59974,2469.867,2019-11-03T05:00:15Z
2019-11-03T03:02:52Z,42.805,6.029,13.2958,4.59975,2469.83,2019-11-03T05:03:18Z
2019-11-03T03:05:55Z,42.805,6.029,13.2957,4.59976,2469.876,2019-11-03T05:06:22Z
2019-11-03T03:08:58Z,42.805,6.029,13.2961,4.59971,2469.876,2019-11-03T05:09:25Z
2019-11-03T03:12:01Z,42.805,6.029,13.2957,4.59963,2469.853,2019-11-03T05:12:28Z
2019-11-03T03:15:04Z,42.805,6.029,13.2957,4.59964,2469.863,2019-11-03T05:15:31Z
2019-11-03T03:18:08Z,42.805,6.029,13.2961,4.59964,2469.853,2019-11-03T05:18:34Z
2019-11-03T03:21:11Z,42.805,6.029,13.2957,4.59968,2469.853,2019-11-03T05:21:38Z
2019-11-03T03:24:14Z,42.805,6.029,13.2961,4.59964,2469.876,2019-11-03T05:24:41Z
2019-11-03T03:27:17Z,42.805,6.029,13.2961,4.59961,2469.876,2019-11-03T05:27:44Z
2019-11-03T03:30:20Z,42.805,6.029,13.2959,4.59968,2469.89,2019-11-03T05:30:47Z
2019-11-03T03:33:24Z,42.805,6.029,13.2957,4.59967,2469.853,2019-11-03T05:33:50Z
2019-11-03T03:36:27Z,42.805,6.029,13.2958,4.59971,2469.867,2019-11-03T05:36:54Z
2019-11-03T03:39:30Z,42.805,6.029,13.2963,4.59970,2469.89,2019-11-03T05:39:57Z
2019-11-03T03:42:33Z,42.805,6.029,13.2964,4.59964,2469.867,2019-11-03T05:43:00Z
2019-11-03T03:45:37Z,42.805,6.029,13.2957,4.59973,2469.867,2019-11-03T05:46:03Z
2019-11-03T03:48:40Z,42.805,6.029,13.2958,4.59960,2469.876,2019-11-03T05:49:07Z
2019-11-03T03:51:43Z,42.805,6.029,13.2957,4.59964,2469.876,2019-11-03T05:52:10Z
2019-11-03T03:54:46Z,42.805,6.029,13.2959,4.59966,2469.89,2019-11-03T05:55:13Z
2019-11-03T03:57:49Z,42.805,6.029,13.2958,4.59960,2469.867,2019-11-03T05:58:16Z
2019-11-03T04:00:53Z,42.805,6.029,13.2961,4.59964,2469.914,2019-11-03T06:01:19Z
2019-11-03T04:03:56Z,42.805,6.029,13.2958,4.59966,2469.89,2019-11-03T06:04:23Z
2019-11-03T04:06:59Z,42.805,6.029,13.2958,4.59959,2469.853,2019-11-03T06:07:26Z
2019-11-03T04:10:02Z,42.805,6.029,13.2961,4.59958,2469.876,2019-11-03T06:10:29Z
2019-11-03T04:13:05Z,42.805,6.029,13.2961,4.59961,2469.876,2019-11-03T06:13:32Z
2019-11-03T04:16:09Z,42.805,6.029,13.2964,4.59966,2469.876,2019-11-03T06:16:35Z
2019-11-03T04:19:12Z,42.805,6.029,13.2956,4.59958,2469.867,2019-11-03T06:19:39Z
2019-11-03T04:22:15Z,42.805,6.029,13.2961,4.59958,2469.853,2019-11-03T06:22:42Z
2019-11-03T04:25:18Z,42.805,6.029,13.2958,4.59961,2469.876,2019-11-03T06:25:45Z
2019-11-03T04:28:22Z,42.805,6.029,13.2959,4.59960,2469.89,2019-11-03T06:28:48Z
2019-11-03T04:31:25Z,42.805,6.029,13.2961,4.59957,2469.867,2019-11-03T06:31:52Z
2019-11-03T04:34:28Z,42.805,6.029,13.2960,4.59964,2469.867,2019-11-03T06:34:55Z
2019-11-03T04:37:31Z,42.805,6.029,13.2958,4.59957,2469.867,2019-11-03T06:37:58Z
2019-11-03T04:40:35Z,42.805,6.029,13.2958,4.59956,2469.876,2019-11-03T06:41:01Z
2019-11-03T04:43:38Z,42.805,6.029,13.2957,4.59962,2469.89,2019-11-03T06:44:05Z
2019-11-03T04:46:41Z,42.805,6.029,13.2956,4.59962,2469.844,2019-11-03T06:47:08Z
2019-11-03T04:49:44Z,42.805,6.029,13.2958,4.59957,2469.853,2019-11-03T06:50:11Z
2019-11-03T04:52:48Z,42.805,6.029,13.2960,4.59958,2469.844,2019-11-03T06:53:14Z
2019-11-03T04:55:51Z,42.805,6.029,13.2955,4.59956,2469.844,2019-11-03T06:56:18Z
2019-11-03T04:58:54Z,42.805,6.029,13.2963,4.59958,2469.89,2019-11-03T06:59:21Z
2019-11-03T05:01:58Z,42.805,6.029,13.2958,4.59969,2469.853,2019-11-03T07:02:25Z
2019-11-03T05:05:01Z,42.805,6.029,13.2960,4.59966,2469.83,2019-11-03T07:05:28Z
2019-11-03T05:08:04Z,42.805,6.029,13.2957,4.59959,2469.83,2019-11-03T07:08:31Z
2019-11-03T05:11:07Z,42.805,6.029,13.2959,4.59959,2469.853,2019-11-03T07:11:34Z
2019-11-03T05:14:11Z,42.805,6.029,13.2961,4.59958,2469.853,2019-11-03T07:14:37Z
2019-11-03T05:17:14Z,42.805,6.029,13.2959,4.59961,2469.867,2019-11-03T07:17:41Z
2019-11-03T05:20:17Z,42.805,6.029,13.2958,4.59961,2469.853,2019-11-03T07:20:44Z
2019-11-03T05:23:20Z,42.805,6.029,13.2958,4.59969,2469.853,2019-11-03T07:23:47Z
2019-11-03T05:26:23Z,42.805,6.029,13.2960,4.59961,2469.867,2019-11-03T07:26:50Z
2019-11-03T05:29:27Z,42.805,6.029,13.2957,4.59961,2469.853,2019-11-03T07:29:53Z
2019-11-03T05:32:30Z,42.805,6.029,13.2957,4.59959,2469.876,2019-11-03T07:32:57Z
2019-11-03T05:35:33Z,42.805,6.029,13.2958,4.59964,2469.876,2019-11-03T07:36:00Z
2019-11-03T05:38:36Z,42.805,6.029,13.2956,4.59958,2469.876,2019-11-03T07:39:03Z
2019-11-03T05:41:40Z,42.805,6.029,13.2957,4.59960,2469.867,2019-11-03T07:42:06Z
2019-11-03T05:44:43Z,42.805,6.029,13.2957,4.59961,2469.853,2019-11-03T07:45:10Z
2019-11-03T05:47:46Z,42.805,6.029,13.2958,4.59961,2469.89,2019-11-03T07:48:13Z
2019-11-03T05:50:49Z,42.805,6.029,13.2959,4.59960,2469.876,2019-11-03T07:51:16Z
2019-11-03T05:53:53Z,42.805,6.029,13.2957,4.59961,2469.844,2019-11-03T07:54:19Z
2019-11-03T05:56:56Z,42.805,6.029,13.2960,4.59961,2469.83,2019-11-03T07:57:23Z
2019-11-03T05:59:59Z,42.805,6.029,13.2967,4.59960,2469.853,2019-11-03T08:00:26Z
2019-11-03T06:03:02Z,42.805,6.029,13.2961,4.59966,2469.853,2019-11-03T08:03:29Z
2019-11-03T06:06:05Z,42.805,6.029,13.2958,4.59961,2469.853,2019-11-03T08:06:32Z
2019-11-03T06:09:09Z,42.805,6.029,13.2974,4.59991,2469.867,2019-11-03T08:09:36Z
2019-11-03T06:12:12Z,42.805,6.029,13.2968,4.59976,2469.853,2019-11-03T08:12:39Z
2019-11-03T06:15:15Z,42.805,6.029,13.2964,4.59979,2469.853,2019-11-03T08:15:42Z
2019-11-03T06:18:18Z,42.805,6.029,13.2961,4.59966,2469.853,2019-11-03T08:18:45Z
2019-11-03T06:21:22Z,42.805,6.029,13.2960,4.59968,2469.914,2019-11-03T08:21:48Z
2019-11-03T06:24:25Z,42.805,6.029,13.2977,4.59980,2469.867,2019-11-03T08:24:52Z
2019-11-03T06:27:28Z,42.805,6.029,13.2980,4.59999,2469.867,2019-11-03T08:27:55Z
2019-11-03T06:30:31Z,42.805,6.029,13.2982,4.59990,2469.914,2019-11-03T08:30:58Z
2019-11-03T06:33:34Z,42.805,6.029,13.2973,4.59977,2469.853,2019-11-03T08:34:01Z
2019-11-03T06:36:38Z,42.805,6.029,13.2982,4.59998,2469.853,2019-11-03T08:37:05Z
2019-11-03T06:39:41Z,42.805,6.029,13.2991,4.60046,2469.876,2019-11-03T08:40:08Z
2019-11-03T06:42:44Z,42.805,6.029,13.2986,4.59996,2469.853,2019-11-03T08:43:11Z
2019-11-03T06:45:47Z,42.805,6.029,13.2990,4.59995,2469.876,2019-11-03T08:46:14Z
2019-11-03T06:48:51Z,42.805,6.029,13.2985,4.60011,2469.867,2019-11-03T08:49:18Z
2019-11-03T06:51:54Z,42.805,6.029,13.2979,4.60028,2469.844,2019-11-03T08:52:21Z
2019-11-03T06:54:57Z,42.805,6.029,13.2996,4.60031,2469.9,2019-11-03T08:55:24Z
2019-11-03T06:58:01Z,42.805,6.029,13.2977,4.59997,2469.83,2019-11-03T08:58:27Z
2019-11-03T07:01:04Z,42.805,6.029,13.2998,4.60004,2469.89,2019-11-03T09:01:31Z
2019-11-03T07:04:07Z,42.805,6.029,13.2983,4.60025,2469.876,2019-11-03T09:04:34Z
2019-11-03T07:07:10Z,42.805,6.029,13.2976,4.60006,2469.876,2019-11-03T09:07:37Z
2019-11-03T07:10:14Z,42.805,6.029,13.2984,4.59990,2469.853,2019-11-03T09:10:40Z
2019-11-03T07:13:17Z,42.805,6.029,13.2971,4.60025,2469.89,2019-11-03T09:13:44Z
2019-11-03T07:16:20Z,42.805,6.029,13.2976,4.60002,2469.844,2019-11-03T09:16:47Z
2019-11-03T07:19:23Z,42.805,6.029,13.2971,4.60004,2469.876,2019-11-03T09:19:50Z
2019-11-03T07:22:26Z,42.805,6.029,13.2991,4.60017,2469.853,2019-11-03T09:22:53Z
2019-11-03T07:25:30Z,42.805,6.029,13.3013,4.60043,2469.914,2019-11-03T09:25:56Z
2019-11-03T07:28:33Z,42.805,6.029,13.2987,4.60031,2469.914,2019-11-03T09:29:00Z
2019-11-03T07:31:36Z,42.805,6.029,13.2982,4.60052,2469.914,2019-11-03T09:32:03Z
2019-11-03T07:34:39Z,42.805,6.029,13.2981,4.60037,2469.89,2019-11-03T09:35:06Z
2019-11-03T07:37:43Z,42.805,6.029,13.2994,4.60031,2469.89,2019-11-03T09:38:10Z
2019-11-03T07:40:46Z,42.805,6.029,13.2971,4.60027,2469.89,2019-11-03T09:41:13Z
2019-11-03T07:43:49Z,42.805,6.029,13.2971,4.60031,2469.914,2019-11-03T09:44:16Z
2019-11-03T07:46:53Z,42.805,6.029,13.2974,4.60011,2469.89,2019-11-03T09:47:19Z
2019-11-03T07:49:56Z,42.805,6.029,13.2986,4.60034,2469.9,2019-11-03T09:50:23Z
2019-11-03T07:52:59Z,42.805,6.029,13.2976,4.60042,2469.914,2019-11-03T09:53:26Z
2019-11-03T07:56:02Z,42.805,6.029,13.2971,4.60026,2469.9,2019-11-03T09:56:29Z
2019-11-03T07:59:05Z,42.805,6.029,13.2976,4.60030,2469.89,2019-11-03T09:59:32Z
2019-11-03T08:02:09Z,42.805,6.029,13.2979,4.60036,2469.9,2019-11-03T10:02:36Z
2019-11-03T08:05:12Z,42.805,6.029,13.2970,4.60023,2469.9,2019-11-03T10:05:39Z
2019-11-03T08:08:15Z,42.805,6.029,13.2972,4.60021,2469.876,2019-11-03T10:08:42Z
2019-11-03T08:11:18Z,42.805,6.029,13.2971,4.60027,2469.914,2019-11-03T10:11:45Z
2019-11-03T08:14:21Z,42.805,6.029,13.2978,4.60004,2469.9,2019-11-03T10:14:48Z
2019-11-03T08:17:25Z,42.805,6.029,13.2967,4.60028,2469.923,2019-11-03T10:17:51Z
2019-11-03T08:20:28Z,42.805,6.029,13.2974,4.60030,2469.914,2019-11-03T10:20:55Z
2019-11-03T08:23:31Z,42.805,6.029,13.2974,4.60029,2469.96,2019-11-03T10:23:58Z
2019-11-03T08:26:34Z,42.805,6.029,13.2974,4.60021,2469.937,2019-11-03T10:27:01Z
2019-11-03T08:29:37Z,42.805,6.029,13.2979,4.60026,2469.96,2019-11-03T10:30:04Z
2019-11-03T08:32:41Z,42.805,6.029,13.2971,4.60039,2469.923,2019-11-03T10:33:07Z
2019-11-03T08:35:44Z,42.805,6.029,13.2974,4.60029,2469.937,2019-11-03T10:36:11Z
2019-11-03T08:38:47Z,42.805,6.029,13.2976,4.60031,2469.923,2019-11-03T10:39:14Z
2019-11-03T08:41:50Z,42.805,6.029,13.2976,4.60009,2469.937,2019-11-03T10:42:17Z
2019-11-03T08:44:54Z,42.805,6.029,13.2973,4.60030,2469.97,2019-11-03T10:45:20Z
2019-11-03T08:47:57Z,42.805,6.029,13.2971,4.60015,2469.947,2019-11-03T10:48:24Z
2019-11-03T08:51:00Z,42.805,6.029,13.2977,4.60008,2469.97,2019-11-03T10:51:27Z
2019-11-03T08:54:03Z,42.805,6.029,13.2977,4.60007,2469.97,2019-11-03T10:54:30Z
2019-11-03T08:57:07Z,42.805,6.029,13.2982,4.60026,2469.96,2019-11-03T10:57:33Z
2019-11-03T09:00:10Z,42.805,6.029,13.2985,4.60024,2469.947,2019-11-03T11:00:37Z
2019-11-03T09:03:13Z,42.805,6.029,13.2969,4.60009,2469.96,2019-11-03T11:03:40Z
2019-11-03T09:06:16Z,42.805,6.029,13.2981,4.60005,2469.923,2019-11-03T11:06:43Z
2019-11-03T09:09:20Z,42.805,6.029,13.2980,4.60011,2469.933,2019-11-03T11:09:46Z
2019-11-03T09:12:23Z,42.805,6.029,13.2982,4.60018,2469.97,2019-11-03T11:12:50Z
2019-11-03T09:15:26Z,42.805,6.029,13.2980,4.60032,2469.96,2019-11-03T11:15:53Z
2019-11-03T09:18:29Z,42.805,6.029,13.2971,4.60019,2469.97,2019-11-03T11:18:56Z
2019-11-03T09:21:32Z,42.805,6.029,13.2968,4.60026,2469.947,2019-11-03T11:21:59Z
2019-11-03T09:24:36Z,42.805,6.029,13.2980,4.60006,2469.947,2019-11-03T11:25:02Z
2019-11-03T09:27:39Z,42.805,6.029,13.2991,4.60029,2469.937,2019-11-03T11:28:06Z
2019-11-03T09:30:42Z,42.805,6.029,13.2970,4.60023,2469.97,2019-11-03T11:31:09Z
2019-11-03T09:33:45Z,42.805,6.029,13.2983,4.60004,2469.97,2019-11-03T11:34:12Z
2019-11-03T09:36:48Z,42.805,6.029,13.2990,4.60040,2469.984,2019-11-03T11:37:15Z
2019-11-03T09:39:52Z,42.805,6.029,13.2966,4.60031,2469.993,2019-11-03T11:40:18Z
2019-11-03T09:42:55Z,42.805,6.029,13.2967,4.60005,2469.993,2019-11-03T11:43:22Z
2019-11-03T09:45:58Z,42.805,6.029,13.2986,4.59996,2469.993,2019-11-03T11:46:25Z
2019-11-03T09:49:01Z,42.805,6.029,13.2983,4.60008,2469.993,2019-11-03T11:49:28Z
2019-11-03T09:52:04Z,42.805,6.029,13.2998,4.60006,2469.984,2019-11-03T11:52:31Z
2019-11-03T09:55:08Z,42.805,6.029,13.2969,4.60019,2469.97,2019-11-03T11:55:35Z
2019-11-03T09:58:11Z,42.805,6.029,13.2967,4.59983,2470.007,2019-11-03T11:58:38Z
2019-11-03T10:01:14Z,42.805,6.029,13.2969,4.59992,2469.984,2019-11-03T12:01:41Z
2019-11-03T10:04:17Z,42.805,6.029,13.2971,4.59989,2469.984,2019-11-03T12:04:44Z
2019-11-03T10:07:21Z,42.805,6.029,13.2973,4.60014,2469.993,2019-11-03T12:07:47Z
2019-11-03T10:10:24Z,42.805,6.029,13.2970,4.60006,2470.007,2019-11-03T12:10:51Z
2019-11-03T10:13:27Z,42.805,6.029,13.2970,4.60001,2469.97,2019-11-03T12:13:54Z
2019-11-03T10:16:30Z,42.805,6.029,13.2982,4.60011,2470.007,2019-11-03T12:16:57Z
2019-11-03T10:19:33Z,42.805,6.029,13.2978,4.59998,2469.984,2019-11-03T12:20:00Z
2019-11-03T10:22:37Z,42.805,6.029,13.2976,4.60019,2469.993,2019-11-03T12:23:04Z
2019-11-03T10:25:40Z,42.805,6.029,13.2971,4.60001,2470.017,2019-11-03T12:26:07Z
2019-11-03T10:28:43Z,42.805,6.029,13.2974,4.60038,2470.007,2019-11-03T12:29:10Z
2019-11-03T10:31:46Z,42.805,6.029,13.2974,4.60009,2469.984,2019-11-03T12:32:13Z
2019-11-03T10:34:50Z,42.805,6.029,13.2982,4.60008,2469.984,2019-11-03T12:35:16Z
2019-11-03T10:37:53Z,42.805,6.029,13.2964,4.60014,2470.053,2019-11-03T12:38:20Z
2019-11-03T10:40:56Z,42.805,6.029,13.2978,4.60027,2470.007,2019-11-03T12:41:23Z
2019-11-03T10:43:59Z,42.805,6.029,13.2978,4.60013,2469.993,2019-11-03T12:44:26Z
2019-11-03T10:47:03Z,42.805,6.029,13.2964,4.60009,2470.03,2019-11-03T12:47:29Z
2019-11-03T10:50:06Z,42.805,6.029,13.2968,4.60014,2470.017,2019-11-03T12:50:33Z
2019-11-03T10:53:09Z,42.805,6.029,13.2967,4.60003,2470.007,2019-11-03T12:53:36Z
2019-11-03T10:56:12Z,42.805,6.029,13.2968,4.60011,2469.97,2019-11-03T12:56:39Z
2019-11-03T10:59:15Z,42.805,6.029,13.2975,4.60035,2470.03,2019-11-03T12:59:42Z
2019-11-03T11:02:19Z,42.805,6.029,13.2980,4.60026,2470.04,2019-11-03T13:02:46Z
2019-11-03T11:05:22Z,42.805,6.029,13.2970,4.60001,2470.007,2019-11-03T13:05:49Z
2019-11-03T11:08:25Z,42.805,6.029,13.2970,4.60009,2470.017,2019-11-03T13:08:52Z
2019-11-03T11:11:29Z,42.805,6.029,13.2964,4.60003,2470.017,2019-11-03T13:11:56Z
2019-11-03T11:14:32Z,42.805,6.029,13.2971,4.60014,2470.017,2019-11-03T13:14:59Z
2019-11-03T11:17:35Z,42.805,6.029,13.2974,4.59985,2470.007,2019-11-03T13:18:02Z
2019-11-03T11:20:38Z,42.805,6.029,13.2969,4.60041,2470.03,2019-11-03T13:21:05Z
2019-11-03T11:23:42Z,42.805,6.029,13.2971,4.60052,2469.993,2019-11-03T13:24:08Z
2019-11-03T11:26:45Z,42.805,6.029,13.2969,4.60018,2470.017,2019-11-03T13:27:12Z
2019-11-03T11:29:48Z,42.805,6.029,13.2979,4.60006,2470.017,2019-11-03T13:30:15Z
2019-11-03T11:32:51Z,42.805,6.029,13.2969,4.59987,2470.007,2019-11-03T13:33:18Z
2019-11-03T11:35:54Z,42.805,6.029,13.2968,4.59985,2470.03,2019-11-03T13:36:21Z
2019-11-03T11:38:58Z,42.805,6.029,13.2979,4.60009,2470.021,2019-11-03T13:39:24Z
2019-11-03T11:42:01Z,42.805,6.029,13.2974,4.60025,2470.04,2019-11-03T13:42:28Z
2019-11-03T11:45:04Z,42.805,6.029,13.2978,4.60033,2470.017,2019-11-03T13:45:31Z
2019-11-03T11:48:07Z,42.805,6.029,13.2981,4.60036,2470.017,2019-11-03T13:48:34Z
2019-11-03T11:51:10Z,42.805,6.029,13.2988,4.60046,2470.007,2019-11-03T13:51:37Z
2019-11-03T11:54:14Z,42.805,6.029,13.2982,4.60058,2470.017,2019-11-03T13:54:41Z
2019-11-03T11:57:17Z,42.805,6.029,13.2986,4.60022,2470.007,2019-11-03T13:57:44Z
2019-11-03T12:00:20Z,42.805,6.029,13.2986,4.60032,2470.007,2019-11-03T14:00:47Z
2019-11-03T12:03:23Z,42.805,6.029,13.2983,4.60046,2469.993,2019-11-03T14:03:50Z
2019-11-03T12:06:27Z,42.805,6.029,13.3000,4.60031,2470.053,2019-11-03T14:06:53Z
2019-11-03T12:09:30Z,42.805,6.029,13.2992,4.60021,2469.993,2019-11-03T14:09:57Z
2019-11-03T12:12:33Z,42.805,6.029,13.2992,4.59998,2470.007,2019-11-03T14:13:00Z
2019-11-03T12:15:36Z,42.805,6.029,13.3000,4.60007,2469.993,2019-11-03T14:16:03Z
2019-11-03T12:18:39Z,42.805,6.029,13.2990,4.60030,2470.03,2019-11-03T14:19:06Z
2019-11-03T12:21:42Z,42.805,6.029,13.2979,4.60003,2470.007,2019-11-03T14:22:09Z
2019-11-03T12:24:46Z,42.805,6.029,13.2986,4.60041,2469.993,2019-11-03T14:25:13Z
2019-11-03T12:27:49Z,42.805,6.029,13.2984,4.60030,2470.03,2019-11-03T14:28:16Z
2019-11-03T12:30:52Z,42.805,6.029,13.2967,4.60029,2470.007,2019-11-03T14:31:19Z
2019-11-03T12:33:55Z,42.805,6.029,13.2983,4.60002,2470.017,2019-11-03T14:34:22Z
2019-11-03T12:36:59Z,42.805,6.029,13.2980,4.60009,2470.017,2019-11-03T14:37:25Z
2019-11-03T12:40:02Z,42.805,6.029,13.2965,4.60002,2470.03,2019-11-03T14:40:29Z
2019-11-03T12:43:05Z,42.805,6.029,13.2967,4.60021,2470.03,2019-11-03T14:43:32Z
2019-11-03T12:46:08Z,42.805,6.029,13.2982,4.60027,2470.017,2019-11-03T14:46:35Z
2019-11-03T12:49:11Z,42.805,6.029,13.2991,4.60019,2469.993,2019-11-03T14:49:38Z
2019-11-03T12:52:15Z,42.805,6.029,13.2974,4.60011,2469.993,2019-11-03T14:52:41Z
2019-11-03T12:55:18Z,42.805,6.029,13.2970,4.60024,2469.97,2019-11-03T14:55:45Z
2019-11-03T12:58:21Z,42.805,6.029,13.2981,4.60026,2469.97,2019-11-03T14:58:48Z
2019-11-03T13:01:24Z,42.805,6.029,13.2983,4.60021,2470.007,2019-11-03T15:01:51Z
2019-11-03T13:04:27Z,42.805,6.029,13.2976,4.60002,2470.007,2019-11-03T15:04:54Z
2019-11-03T13:07:31Z,42.805,6.029,13.3009,4.60010,2469.97,2019-11-03T15:07:57Z
2019-11-03T13:10:34Z,42.805,6.029,13.3006,4.60014,2470.007,2019-11-03T15:11:01Z
2019-11-03T13:13:37Z,42.805,6.029,13.3006,4.60017,2469.993,2019-11-03T15:14:04Z
2019-11-03T13:16:40Z,42.805,6.029,13.3013,4.60023,2470.007,2019-11-03T15:17:07Z
2019-11-03T13:19:43Z,42.805,6.029,13.3011,4.60027,2469.993,2019-11-03T15:20:10Z
2019-11-03T13:22:47Z,42.805,6.029,13.3000,4.60031,2469.993,2019-11-03T15:23:13Z
2019-11-03T13:25:50Z,42.805,6.029,13.3004,4.60080,2470.017,2019-11-03T15:26:17Z
2019-11-03T13:28:53Z,42.805,6.029,13.3007,4.60039,2470.007,2019-11-03T15:29:20Z
2019-11-03T13:31:56Z,42.805,6.029,13.3024,4.60016,2469.984,2019-11-03T15:32:23Z
2019-11-03T13:34:59Z,42.805,6.029,13.3024,4.59990,2470.03,2019-11-03T15:35:26Z
2019-11-03T13:38:03Z,42.805,6.029,13.3014,4.60011,2470.007,2019-11-03T15:38:29Z
2019-11-03T13:41:06Z,42.805,6.029,13.3024,4.60021,2470.007,2019-11-03T15:41:33Z
2019-11-03T13:44:09Z,42.805,6.029,13.3021,4.60026,2469.97,2019-11-03T15:44:36Z
2019-11-03T13:47:12Z,42.805,6.029,13.3016,4.60033,2469.96,2019-11-03T15:47:39Z
2019-11-03T13:50:15Z,42.805,6.029,13.3039,4.60066,2469.993,2019-11-03T15:50:42Z
2019-11-03T13:53:18Z,42.805,6.029,13.3040,4.60040,2469.993,2019-11-03T15:53:45Z
2019-11-03T13:56:22Z,42.805,6.029,13.3024,4.60054,2469.97,2019-11-03T15:56:49Z
2019-11-03T13:59:25Z,42.805,6.029,13.2990,4.60016,2469.993,2019-11-03T15:59:52Z
2019-11-03T14:02:28Z,42.805,6.029,13.2994,4.60020,2469.984,2019-11-03T16:02:55Z
2019-11-03T14:05:31Z,42.805,6.029,13.3011,4.60023,2470.03,2019-11-03T16:05:58Z
2019-11-03T14:08:35Z,42.805,6.029,13.3015,4.60016,2470.007,2019-11-03T16:09:01Z
2019-11-03T14:11:38Z,42.805,6.029,13.3004,4.60002,2470.007,2019-11-03T16:12:05Z
2019-11-03T14:14:41Z,42.805,6.029,13.3015,4.60015,2469.97,2019-11-03T16:15:08Z
2019-11-03T14:17:44Z,42.805,6.029,13.3006,4.60027,2469.947,2019-11-03T16:18:11Z
2019-11-03T14:20:47Z,42.805,6.029,13.3005,4.60011,2469.96,2019-11-03T16:21:14Z
2019-11-03T14:23:51Z,42.805,6.029,13.3032,4.59992,2469.97,2019-11-03T16:24:17Z
2019-11-03T14:26:54Z,42.805,6.029,13.2982,4.60003,2470.007,2019-11-03T16:27:21Z
2019-11-03T14:29:57Z,42.805,6.029,13.2976,4.59972,2470.007,2019-11-03T16:30:24Z
2019-11-03T14:33:00Z,42.805,6.029,13.2971,4.59997,2469.984,2019-11-03T16:33:27Z
2019-11-03T14:36:04Z,42.805,6.029,13.2971,4.59996,2469.96,2019-11-03T16:36:30Z
2019-11-03T14:39:07Z,42.805,6.029,13.2983,4.59990,2469.984,2019-11-03T16:39:34Z
2019-11-03T14:42:10Z,42.805,6.029,13.2993,4.59996,2469.984,2019-11-03T16:42:37Z
2019-11-03T14:45:13Z,42.805,6.029,13.2992,4.59991,2469.993,2019-11-03T16:45:40Z
2019-11-03T14:48:16Z,42.805,6.029,13.2989,4.59989,2469.984,2019-11-03T16:48:43Z
2019-11-03T14:51:20Z,42.805,6.029,13.3018,4.59978,2470.007,2019-11-03T16:51:46Z
2019-11-03T14:54:23Z,42.805,6.029,13.3002,4.59997,2469.97,2019-11-03T16:54:50Z
2019-11-03T14:57:26Z,42.805,6.029,13.2992,4.59986,2469.993,2019-11-03T16:57:53Z
2019-11-03T15:00:29Z,42.805,6.029,13.3007,4.59996,2469.984,2019-11-03T17:00:56Z
2019-11-03T15:03:32Z,42.805,6.029,13.3027,4.59981,2469.947,2019-11-03T17:03:59Z